DW8572 Weather Reports


time (UTC)temp
C
wind
direction
speed
KPH
gust
KPH
rain 1hr
cm
rain 24hr
cm
rain mn
cm
humidity
%
barometer
mb
20260509013040 12 198 0.0 0.0 0.00 0.25 0.10 88 1008.1
20260509011530 12 198 0.0 0.0 0.00 0.25 0.10 88 1007.9
20260509010028 12 198 0.0 0.0 0.00 0.25 0.10 87 1007.8
20260509004533 12 198 0.0 0.0 0.00 0.25 0.10 87 1007.8
20260509003028 13 198 0.0 0.0 0.00 0.25 0.10 87 1007.8
20260509001528 13 198 0.0 0.0 0.00 0.25 0.10 86 1007.7
20260509000026 13 198 0.0 0.0 0.00 0.25 0.10 86 1007.8
20260508234530 13 198 0.0 0.0 0.00 0.25 0.10 88 1007.8
20260508233024 13 198 0.0 0.0 0.00 0.25 0.10 87 1007.9
20260508231524 13 202 0.0 0.0 0.00 0.25 0.10 86 1008.0
20260508230034 13 202 0.0 0.0 0.00 0.25 0.10 86 1008.0
20260508224526 13 207 0.0 0.0 0.00 0.25 0.10 86 1008.0
20260508223027 13 208 0.0 0.0 0.00 0.25 0.10 85 1008.1
20260508221521 13 193 0.0 0.0 0.00 0.25 0.10 85 1008.1
20260508220026 13 204 0.0 0.0 0.03 0.25 0.10 85 1008.1
20260508214527 13 208 0.0 0.0 0.03 0.25 0.10 85 1008.0
20260508213019 13 213 0.0 0.0 0.03 0.25 0.10 85 1008.1
20260508211532 13 211 0.0 0.0 0.03 0.25 0.10 85 1008.4
20260508210016 13 194 0.0 0.0 0.00 0.23 0.08 82 1008.5
20260508204516 14 196 0.0 0.0 0.00 0.23 0.08 80 1008.5
20260508203014 14 196 0.0 0.0 0.00 0.23 0.08 78 1008.5
20260508201515 14 196 0.0 0.0 0.00 0.23 0.08 79 1008.7
20260508200009 13 196 0.0 0.0 0.00 0.23 0.08 78 1009.0
20260508194521 13 196 0.0 0.0 0.00 0.23 0.08 79 1009.1
20260508193005 13 196 0.0 0.0 0.00 0.23 0.08 80 1009.3
20260508191505 13 196 0.0 0.0 0.00 0.23 0.08 80 1009.4
20260508190011 13 196 0.0 0.0 0.00 0.23 0.08 80 1009.6
20260508184608 13 196 0.0 0.0 0.00 0.23 0.08 81 1009.9
20260508183125 13 196 0.0 0.0 0.00 0.23 0.08 82 1010.1
20260508181605 12 196 0.0 0.0 0.00 0.23 0.08 85 1010.4
20260508180051 12 196 0.0 0.0 0.00 0.23 0.08 85 1010.6
20260508174552 11 196 0.0 0.0 0.03 0.23 0.08 87 1010.8
20260508173047 11 195 0.0 0.0 0.03 0.23 0.08 88 1011.1
20260508171547 11 195 0.0 0.0 0.03 0.23 0.08 88 1011.4
20260508170053 11 195 0.0 0.0 0.03 0.23 0.08 87 1011.5
20260508164548 11 193 0.0 0.0 0.00 0.20 0.05 86 1011.5
20260508163045 11 198 0.0 0.0 0.00 0.20 0.05 85 1011.8
20260508161546 12 190 0.0 0.0 0.03 0.20 0.05 86 1011.4
20260508160043 12 190 0.0 0.0 0.03 0.20 0.05 86 1011.7
20260508154603 11 221 0.0 0.0 0.05 0.20 0.05 88 1011.7
20260508153038 11 226 0.0 0.0 0.05 0.20 0.05 89 1011.8
20260508151539 10 226 0.0 0.0 0.03 0.18 0.03 87 1012.1
20260508150038 10 221 0.0 0.0 0.03 0.18 0.03 86 1012.3
20260508144539 11 224 0.0 0.0 0.00 0.15 0.00 85 1012.4
20260508143035 11 223 0.0 0.0 0.00 0.15 0.00 83 1012.3
20260508141535 11 223 0.0 0.0 0.00 0.15 0.00 84 1012.1
20260508140036 10 223 0.0 0.0 0.00 0.15 0.00 83 1012.2
20260508134545 10 223 0.0 0.0 0.00 0.15 0.00 83 1012.3
20260508133045 10 223 0.0 0.0 0.00 0.15 0.00 83 1011.9
20260508131531 10 225 0.0 0.0 0.00 0.15 0.00 84 1012.2
20260508130033 10 223 0.0 0.0 0.00 0.15 0.00 84 1012.2
20260508124533 10 230 0.0 0.0 0.00 0.15 0.00 85 1012.1
20260508123042 9 223 0.0 0.0 0.00 0.15 0.00 86 1012.0
20260508121528 9 227 0.0 0.0 0.00 0.15 0.00 87 1012.0
20260508120020 8 227 0.0 0.0 0.00 0.15 0.00 87 1012.1
20260508114517 8 227 0.0 0.0 0.00 0.15 0.00 87 1011.9
20260508113019 7 227 0.0 0.0 0.00 0.15 0.00 87 1011.9
20260508111516 7 227 0.0 0.0 0.00 0.15 0.00 87 1011.6
20260508110015 7 227 0.0 0.0 0.00 0.15 0.00 86 1011.6
20260508104515 7 228 0.0 0.0 0.00 0.15 0.00 87 1011.3
20260508103017 7 228 0.0 0.0 0.00 0.15 0.00 88 1011.1
20260508101513 7 228 0.0 0.0 0.00 0.15 0.00 87 1011.2
20260508100012 7 228 0.0 0.0 0.00 0.15 0.00 87 1011.3
20260508094511 7 227 0.0 0.0 0.00 0.15 0.00 86 1011.3
20260508093016 7 233 0.0 0.0 0.00 0.15 0.00 86 1011.5
20260508091510 7 229 0.0 0.0 0.00 0.15 0.00 86 1011.5
20260508090014 7 231 0.0 0.0 0.00 0.15 0.00 87 1011.6
20260508084509 7 259 0.0 0.0 0.00 0.15 0.00 88 1011.5
20260508083009 7 259 0.0 0.0 0.00 0.15 0.00 89 1011.4
20260508081508 6 261 0.0 0.0 0.00 0.15 0.00 89 1011.4
20260508080007 6 261 0.0 0.0 0.00 0.15 0.00 90 1011.4
20260508074507 6 261 0.0 0.0 0.00 0.15 0.00 90 1011.3
20260508073007 6 261 0.0 0.0 0.00 0.15 0.00 90 1011.5
20260508071503 6 263 0.0 0.0 0.00 0.15 0.00 90 1011.5
20260508070001 6 263 0.0 0.0 0.00 0.15 0.00 91 1011.8
20260508064619 6 264 0.0 0.0 0.00 0.15 0.00 91 1011.9
20260508063109 6 265 0.0 0.0 0.00 0.15 0.00 91 1012.0
20260508061607 6 265 0.0 0.0 0.00 0.15 0.00 91 1012.1
20260508060104 6 265 0.0 0.0 0.00 0.15 0.00 91 1012.2
20260508054553 7 265 0.0 0.0 0.00 0.15 0.00 91 1012.3
20260508053055 6 265 0.0 0.0 0.00 0.15 0.00 91 1012.4
20260508051606 7 265 0.0 0.0 0.00 0.15 0.00 90 1012.5
20260508050048 7 265 0.0 0.0 0.00 0.15 0.00 90 1012.5
20260508044549 7 265 0.0 0.0 0.00 0.15 0.00 90 1012.5
20260508043044 7 265 0.0 0.0 0.00 0.15 0.00 90 1012.5
20260508041542 8 265 0.0 0.0 0.00 0.15 0.00 89 1012.5
20260508040049 8 265 0.0 0.0 0.05 0.15 0.00 89 1012.5
20260508034545 8 274 0.0 0.0 0.13 0.15 0.15 89 1012.6
20260508033031 8 275 0.0 0.0 0.15 0.15 0.15 88 1012.6
20260508031533 8 275 0.0 0.0 0.15 0.15 0.15 87 1012.6
20260508030022 8 262 0.0 0.0 0.10 0.10 0.10 85 1013.5
20260508024540 9 229 0.0 0.0 0.03 0.03 0.03 81 1013.4
20260508023014 9 217 0.0 0.0 0.00 0.00 0.00 76 1012.7
20260508021509 9 217 0.0 0.0 0.00 0.00 0.00 75 1012.3
20260508020005 9 217 0.0 0.0 0.00 0.00 0.00 76 1012.2
20260508014601 9 217 0.0 0.0 0.00 0.00 0.00 75 1012.1